Year,Month,Day,Hour,Minute,Value (Times are PST for temperature in C)
2012,06,29,00,00,13.40
2012,06,29,00,01,13.40
2012,06,29,00,02,13.40
2012,06,29,00,03,13.40
2012,06,29,00,04,13.40
2012,06,29,00,05,13.40
2012,06,29,00,06,13.40
2012,06,29,00,07,13.40
2012,06,29,00,08,13.40
2012,06,29,00,09,13.40
2012,06,29,00,10,13.40
2012,06,29,00,11,13.40
2012,06,29,00,12,13.40
2012,06,29,00,13,13.40
2012,06,29,00,14,13.40
2012,06,29,00,15,13.40
2012,06,29,00,16,13.40
2012,06,29,00,17,13.30
2012,06,29,00,18,13.40
2012,06,29,00,19,13.30
2012,06,29,00,20,13.30
2012,06,29,00,21,13.30
2012,06,29,00,22,13.30
2012,06,29,00,23,13.30
2012,06,29,00,24,13.30
2012,06,29,00,25,13.30
2012,06,29,00,26,13.30
2012,06,29,00,27,13.30
2012,06,29,00,28,13.30
2012,06,29,00,29,13.30
2012,06,29,00,30,13.30
2012,06,29,00,31,13.30
2012,06,29,00,32,13.30
2012,06,29,00,33,13.30
2012,06,29,00,34,13.30
2012,06,29,00,35,13.30
2012,06,29,00,36,13.30
2012,06,29,00,37,13.30
2012,06,29,00,38,13.30
2012,06,29,00,39,13.30
2012,06,29,00,40,13.30
2012,06,29,00,41,13.30
2012,06,29,00,42,13.20
2012,06,29,00,43,13.20
2012,06,29,00,44,13.20
2012,06,29,00,45,13.20
2012,06,29,00,46,13.20
2012,06,29,00,47,13.20
2012,06,29,00,48,13.20
2012,06,29,00,49,13.20
2012,06,29,00,50,13.20
2012,06,29,00,51,13.20
2012,06,29,00,52,13.20
2012,06,29,00,53,13.20
2012,06,29,00,54,13.20
2012,06,29,00,55,13.10
2012,06,29,00,56,13.10
2012,06,29,00,57,13.10
2012,06,29,00,58,13.10
2012,06,29,00,59,13.10
2012,06,29,01,00,13.10
2012,06,29,01,01,13.10
2012,06,29,01,02,13.10
2012,06,29,01,03,13.10
2012,06,29,01,04,13.10
2012,06,29,01,05,13.10
2012,06,29,01,06,13.10
2012,06,29,01,07,13.10
2012,06,29,01,08,13.10
2012,06,29,01,09,13.10
2012,06,29,01,10,13.10
2012,06,29,01,11,13.10
2012,06,29,01,12,13.10
2012,06,29,01,13,13.00
2012,06,29,01,14,13.00
2012,06,29,01,15,13.00
2012,06,29,01,16,13.00
2012,06,29,01,17,13.00
2012,06,29,01,18,13.00
2012,06,29,01,19,13.00
2012,06,29,01,20,13.00
2012,06,29,01,21,13.00
2012,06,29,01,22,13.00
2012,06,29,01,23,13.00
2012,06,29,01,24,13.00
2012,06,29,01,25,13.00
2012,06,29,01,26,13.00
2012,06,29,01,27,12.90
2012,06,29,01,28,12.90
2012,06,29,01,29,12.90
2012,06,29,01,30,12.90
2012,06,29,01,31,12.90
2012,06,29,01,32,12.90
2012,06,29,01,33,12.90
2012,06,29,01,34,12.90
2012,06,29,01,35,12.90
2012,06,29,01,36,12.90
2012,06,29,01,37,12.90
2012,06,29,01,38,12.90
2012,06,29,01,39,12.90
2012,06,29,01,40,12.90
2012,06,29,01,41,12.90
2012,06,29,01,42,12.90
2012,06,29,01,43,12.90
2012,06,29,01,44,12.90
2012,06,29,01,45,12.90
2012,06,29,01,46,12.90
2012,06,29,01,47,12.90
2012,06,29,01,48,12.90
2012,06,29,01,49,12.80
2012,06,29,01,50,12.80
2012,06,29,01,51,12.80
2012,06,29,01,52,12.80
2012,06,29,01,53,12.80
2012,06,29,01,54,12.80
2012,06,29,01,55,12.80
2012,06,29,01,56,12.80
2012,06,29,01,57,12.80
2012,06,29,01,58,12.80
2012,06,29,01,59,12.80
2012,06,29,02,00,12.80
2012,06,29,02,01,12.80
2012,06,29,02,02,12.80
2012,06,29,02,03,12.80
2012,06,29,02,04,12.80
2012,06,29,02,05,12.80
2012,06,29,02,06,12.80
2012,06,29,02,07,12.80
2012,06,29,02,08,12.80
2012,06,29,02,09,12.80
2012,06,29,02,10,12.80
2012,06,29,02,11,12.80
2012,06,29,02,12,12.80
2012,06,29,02,13,12.80
2012,06,29,02,14,12.80
2012,06,29,02,15,12.80
2012,06,29,02,16,12.80
2012,06,29,02,17,12.80
2012,06,29,02,18,12.80
2012,06,29,02,19,12.80
2012,06,29,02,20,12.80
2012,06,29,02,21,12.80
2012,06,29,02,22,12.80
2012,06,29,02,23,12.80
2012,06,29,02,24,12.80
2012,06,29,02,25,12.80
2012,06,29,02,26,12.80
2012,06,29,02,27,12.80
2012,06,29,02,28,12.80
2012,06,29,02,29,12.70
2012,06,29,02,30,12.70
2012,06,29,02,31,12.70
2012,06,29,02,32,12.70
2012,06,29,02,33,12.70
2012,06,29,02,34,12.70
2012,06,29,02,35,12.70
2012,06,29,02,36,12.70
2012,06,29,02,37,12.70
2012,06,29,02,38,12.70
2012,06,29,02,39,12.70
2012,06,29,02,40,12.70
2012,06,29,02,41,12.60
2012,06,29,02,42,12.60
2012,06,29,02,43,12.60
2012,06,29,02,44,12.60
2012,06,29,02,45,12.60
2012,06,29,02,46,12.60
2012,06,29,02,47,12.60
2012,06,29,02,48,12.60
2012,06,29,02,49,12.60
2012,06,29,02,50,12.60
2012,06,29,02,51,12.60
2012,06,29,02,52,12.60
2012,06,29,02,53,12.60
2012,06,29,02,54,12.60
2012,06,29,02,55,12.50
2012,06,29,02,56,12.50
2012,06,29,02,57,12.50
2012,06,29,02,58,12.50
2012,06,29,02,59,12.50
2012,06,29,03,00,12.50
2012,06,29,03,01,12.50
2012,06,29,03,02,12.50
2012,06,29,03,03,12.50
2012,06,29,03,04,12.50
2012,06,29,03,05,12.50
2012,06,29,03,06,12.50
2012,06,29,03,07,12.50
2012,06,29,03,08,12.50
2012,06,29,03,09,12.50
2012,06,29,03,10,12.50
2012,06,29,03,11,12.50
2012,06,29,03,12,12.50
2012,06,29,03,13,12.50
2012,06,29,03,14,12.50
2012,06,29,03,15,12.50
2012,06,29,03,16,12.50
2012,06,29,03,17,12.50
2012,06,29,03,18,12.50
2012,06,29,03,19,12.50
2012,06,29,03,20,12.50
2012,06,29,03,21,12.50
2012,06,29,03,22,12.50
2012,06,29,03,23,12.50
2012,06,29,03,24,12.50
2012,06,29,03,25,12.50
2012,06,29,03,26,12.50
2012,06,29,03,27,12.50
2012,06,29,03,28,12.50
2012,06,29,03,29,12.50
2012,06,29,03,30,12.50
2012,06,29,03,31,12.50
2012,06,29,03,32,12.50
2012,06,29,03,33,12.50
2012,06,29,03,34,12.50
2012,06,29,03,35,12.50
2012,06,29,03,36,12.50
2012,06,29,03,37,12.50
2012,06,29,03,38,12.40
2012,06,29,03,39,12.40
2012,06,29,03,40,12.40
2012,06,29,03,41,12.40
2012,06,29,03,42,12.40
2012,06,29,03,43,12.40
2012,06,29,03,44,12.40
2012,06,29,03,45,12.50
2012,06,29,03,46,12.40
2012,06,29,03,47,12.40
2012,06,29,03,48,12.40
2012,06,29,03,49,12.50
2012,06,29,03,50,12.50
2012,06,29,03,51,12.50
2012,06,29,03,52,12.50
2012,06,29,03,53,12.50
2012,06,29,03,54,12.50
2012,06,29,03,55,12.50
2012,06,29,03,56,12.50
2012,06,29,03,57,12.50
2012,06,29,03,58,12.50
2012,06,29,03,59,12.50
2012,06,29,04,00,12.50
2012,06,29,04,01,12.50
2012,06,29,04,02,12.50
2012,06,29,04,03,12.50
2012,06,29,04,04,12.50
2012,06,29,04,05,12.50
2012,06,29,04,06,12.50
2012,06,29,04,07,12.50
2012,06,29,04,08,12.50
2012,06,29,04,09,12.50
2012,06,29,04,10,12.50
2012,06,29,04,11,12.50
2012,06,29,04,12,12.50
2012,06,29,04,13,12.50
2012,06,29,04,14,12.50
2012,06,29,04,15,12.50
2012,06,29,04,16,12.50
2012,06,29,04,17,12.50
2012,06,29,04,18,12.50
2012,06,29,04,19,12.50
2012,06,29,04,20,12.50
2012,06,29,04,21,12.60
2012,06,29,04,22,12.60
2012,06,29,04,23,12.60
2012,06,29,04,24,12.60
2012,06,29,04,25,12.60
2012,06,29,04,26,12.50
2012,06,29,04,27,12.50
2012,06,29,04,28,12.50
2012,06,29,04,29,12.50
2012,06,29,04,30,12.50
2012,06,29,04,31,12.50
2012,06,29,04,32,12.50
2012,06,29,04,33,12.50
2012,06,29,04,34,12.50
2012,06,29,04,35,12.50
2012,06,29,04,36,12.50
2012,06,29,04,37,12.50
2012,06,29,04,38,12.50
2012,06,29,04,39,12.50
2012,06,29,04,40,12.50
2012,06,29,04,41,12.40
2012,06,29,04,42,12.40
2012,06,29,04,43,12.40
2012,06,29,04,44,12.40
2012,06,29,04,45,12.40
2012,06,29,04,46,12.40
2012,06,29,04,47,12.40
2012,06,29,04,48,12.40
2012,06,29,04,49,12.40
2012,06,29,04,50,12.40
2012,06,29,04,51,12.40
2012,06,29,04,52,12.40
2012,06,29,04,53,12.50
2012,06,29,04,54,12.50
2012,06,29,04,55,12.50
2012,06,29,04,56,12.50
2012,06,29,04,57,12.50
2012,06,29,04,58,12.50
2012,06,29,04,59,12.50
2012,06,29,05,00,12.50
2012,06,29,05,01,12.50
2012,06,29,05,02,12.50
2012,06,29,05,03,12.50
2012,06,29,05,04,12.60
2012,06,29,05,05,12.60
2012,06,29,05,06,12.60
2012,06,29,05,07,12.60
2012,06,29,05,08,12.60
2012,06,29,05,09,12.60
2012,06,29,05,10,12.60
2012,06,29,05,11,12.60
2012,06,29,05,12,12.60
2012,06,29,05,13,12.60
2012,06,29,05,14,12.60
2012,06,29,05,15,12.60
2012,06,29,05,16,12.60
2012,06,29,05,17,12.60
2012,06,29,05,18,12.60
2012,06,29,05,19,12.60
2012,06,29,05,20,12.60
2012,06,29,05,21,12.60
2012,06,29,05,22,12.60
2012,06,29,05,23,12.60
2012,06,29,05,24,12.60
2012,06,29,05,25,12.60
2012,06,29,05,26,12.60
2012,06,29,05,27,12.60
2012,06,29,05,28,12.60
2012,06,29,05,29,12.60
2012,06,29,05,30,12.70
2012,06,29,05,31,12.70
2012,06,29,05,32,12.60
2012,06,29,05,33,12.70
2012,06,29,05,34,12.70
2012,06,29,05,35,12.70
2012,06,29,05,36,12.70
2012,06,29,05,37,12.70
2012,06,29,05,38,12.70
2012,06,29,05,39,12.70
2012,06,29,05,40,12.70
2012,06,29,05,41,12.70
2012,06,29,05,42,12.70
2012,06,29,05,43,12.70
2012,06,29,05,44,12.70
2012,06,29,05,45,12.70
2012,06,29,05,46,12.70
2012,06,29,05,47,12.70
2012,06,29,05,48,12.70
2012,06,29,05,49,12.70
2012,06,29,05,50,12.70
2012,06,29,05,51,12.70
2012,06,29,05,52,12.70
2012,06,29,05,53,12.70
2012,06,29,05,54,12.70
2012,06,29,05,55,12.70
2012,06,29,05,56,12.70
2012,06,29,05,57,12.80
2012,06,29,05,58,12.80
2012,06,29,05,59,12.80
2012,06,29,06,00,12.80
2012,06,29,06,01,12.80
2012,06,29,06,02,12.80
2012,06,29,06,03,12.80
2012,06,29,06,04,12.70
2012,06,29,06,05,12.70
2012,06,29,06,06,12.80
2012,06,29,06,07,12.70
2012,06,29,06,08,12.70
2012,06,29,06,09,12.70
2012,06,29,06,10,12.70
2012,06,29,06,11,12.70
2012,06,29,06,12,12.70
2012,06,29,06,13,12.80
2012,06,29,06,14,12.80
2012,06,29,06,15,12.80
2012,06,29,06,16,12.80
2012,06,29,06,17,12.80
2012,06,29,06,18,12.80
2012,06,29,06,19,12.80
2012,06,29,06,20,12.80
2012,06,29,06,21,12.80
2012,06,29,06,22,12.80
2012,06,29,06,23,12.80
2012,06,29,06,24,12.80
2012,06,29,06,25,12.80
2012,06,29,06,26,12.80
2012,06,29,06,27,12.80
2012,06,29,06,28,12.80
2012,06,29,06,29,12.80
2012,06,29,06,30,12.80
2012,06,29,06,31,12.80
2012,06,29,06,32,12.80
2012,06,29,06,33,12.80
2012,06,29,06,34,12.80
2012,06,29,06,35,12.80
2012,06,29,06,36,12.80
2012,06,29,06,37,12.90
2012,06,29,06,38,12.90
2012,06,29,06,39,12.90
2012,06,29,06,40,12.90
2012,06,29,06,41,12.90
2012,06,29,06,42,12.90
2012,06,29,06,43,13.00
2012,06,29,06,44,13.00
2012,06,29,06,45,13.00
2012,06,29,06,46,13.00
2012,06,29,06,47,13.00
2012,06,29,06,48,13.10
2012,06,29,06,49,13.10
2012,06,29,06,50,13.10
2012,06,29,06,51,13.10
2012,06,29,06,52,13.10
2012,06,29,06,53,13.20
2012,06,29,06,54,13.20
2012,06,29,06,55,13.20
2012,06,29,06,56,13.20
2012,06,29,06,57,13.20
2012,06,29,06,58,13.20
2012,06,29,06,59,13.20
2012,06,29,07,00,13.20
2012,06,29,07,01,13.20
2012,06,29,07,02,13.20
2012,06,29,07,03,13.20
2012,06,29,07,04,13.30
2012,06,29,07,05,13.30
2012,06,29,07,06,13.30
2012,06,29,07,07,13.30
2012,06,29,07,08,13.30
2012,06,29,07,09,13.30
2012,06,29,07,10,13.40
2012,06,29,07,11,13.40
2012,06,29,07,12,13.40
2012,06,29,07,13,13.50
2012,06,29,07,14,13.50
2012,06,29,07,15,13.50
2012,06,29,07,16,13.60
2012,06,29,07,17,13.60
2012,06,29,07,18,13.70
2012,06,29,07,19,13.70
2012,06,29,07,20,13.70
2012,06,29,07,21,13.80
2012,06,29,07,22,13.80
2012,06,29,07,23,13.80
2012,06,29,07,24,13.80
2012,06,29,07,25,13.80
2012,06,29,07,26,13.80
2012,06,29,07,27,13.80
2012,06,29,07,28,13.80
2012,06,29,07,29,13.90
2012,06,29,07,30,13.90
2012,06,29,07,31,13.90
2012,06,29,07,32,13.90
2012,06,29,07,33,13.90
2012,06,29,07,34,13.90
2012,06,29,07,35,13.90
2012,06,29,07,36,13.90
2012,06,29,07,37,13.90
2012,06,29,07,38,13.90
2012,06,29,07,39,14.00
2012,06,29,07,40,14.00
2012,06,29,07,41,14.00
2012,06,29,07,42,14.00
2012,06,29,07,43,14.10
2012,06,29,07,44,14.10
2012,06,29,07,45,14.10
2012,06,29,07,46,14.10
2012,06,29,07,47,14.10
2012,06,29,07,48,14.10
2012,06,29,07,49,14.10
2012,06,29,07,50,14.10
2012,06,29,07,51,14.10
2012,06,29,07,52,14.20
2012,06,29,07,53,14.20
2012,06,29,07,54,14.20
2012,06,29,07,55,14.20
2012,06,29,07,56,14.20
2012,06,29,07,57,14.20
2012,06,29,07,58,14.20
2012,06,29,07,59,14.20
2012,06,29,08,00,14.20
2012,06,29,08,01,14.30
2012,06,29,08,02,14.30
2012,06,29,08,03,14.30
2012,06,29,08,04,14.30
2012,06,29,08,05,14.30
2012,06,29,08,06,14.30
2012,06,29,08,07,14.30
2012,06,29,08,08,14.30
2012,06,29,08,09,14.30
2012,06,29,08,10,14.30
2012,06,29,08,11,14.40
2012,06,29,08,12,14.40
2012,06,29,08,13,14.40
2012,06,29,08,14,14.40
2012,06,29,08,15,14.50
2012,06,29,08,16,14.50
2012,06,29,08,17,14.60
2012,06,29,08,18,14.60
2012,06,29,08,19,14.70
2012,06,29,08,20,14.70
2012,06,29,08,21,14.70
2012,06,29,08,22,14.70
2012,06,29,08,23,14.80
2012,06,29,08,24,14.80
2012,06,29,08,25,14.80
2012,06,29,08,26,14.90
2012,06,29,08,27,14.90
2012,06,29,08,28,14.90
2012,06,29,08,29,15.00
2012,06,29,08,30,15.00
2012,06,29,08,31,15.10
2012,06,29,08,32,15.10
2012,06,29,08,33,15.10
2012,06,29,08,34,15.10
2012,06,29,08,35,15.20
2012,06,29,08,36,15.20
2012,06,29,08,37,15.20
2012,06,29,08,38,15.20
2012,06,29,08,39,15.20
2012,06,29,08,40,15.20
2012,06,29,08,41,15.20
2012,06,29,08,42,15.20
2012,06,29,08,43,15.20
2012,06,29,08,44,15.20
2012,06,29,08,45,15.20
2012,06,29,08,46,15.20
2012,06,29,08,47,15.20
2012,06,29,08,48,15.30
2012,06,29,08,49,15.30
2012,06,29,08,50,15.30
2012,06,29,08,51,15.30
2012,06,29,08,52,15.30
2012,06,29,08,53,15.40
2012,06,29,08,54,15.40
2012,06,29,08,55,15.50
2012,06,29,08,56,15.60
2012,06,29,08,57,15.70
2012,06,29,08,58,15.80
2012,06,29,08,59,15.80
2012,06,29,09,00,15.80
2012,06,29,09,01,15.80
2012,06,29,09,02,15.80
2012,06,29,09,03,15.70
2012,06,29,09,04,15.70
2012,06,29,09,05,15.70
2012,06,29,09,06,15.70
2012,06,29,09,07,15.60
2012,06,29,09,08,15.70
2012,06,29,09,09,15.70
2012,06,29,09,10,15.70
2012,06,29,09,11,15.70
2012,06,29,09,12,15.70
2012,06,29,09,13,15.70
2012,06,29,09,14,15.80
2012,06,29,09,15,15.80
2012,06,29,09,16,15.80
2012,06,29,09,17,15.80
2012,06,29,09,18,15.80
2012,06,29,09,19,15.80
2012,06,29,09,20,15.80
2012,06,29,09,21,15.90
2012,06,29,09,22,15.90
2012,06,29,09,23,16.00
2012,06,29,09,24,16.00
2012,06,29,09,25,16.10
2012,06,29,09,26,16.10
2012,06,29,09,27,16.10
2012,06,29,09,28,16.10
2012,06,29,09,29,16.00
2012,06,29,09,30,16.00
2012,06,29,09,31,16.00
2012,06,29,09,32,16.00
2012,06,29,09,33,16.10
2012,06,29,09,34,16.10
2012,06,29,09,35,16.20
2012,06,29,09,36,16.20
2012,06,29,09,37,16.30
2012,06,29,09,38,16.30
2012,06,29,09,39,16.30
2012,06,29,09,40,16.30
2012,06,29,09,41,16.40
2012,06,29,09,42,16.40
2012,06,29,09,43,16.50
2012,06,29,09,44,16.50
2012,06,29,09,45,16.60
2012,06,29,09,46,16.60
2012,06,29,09,47,16.70
2012,06,29,09,48,16.70
2012,06,29,09,49,16.70
2012,06,29,09,50,16.70
2012,06,29,09,51,16.70
2012,06,29,09,52,16.70
2012,06,29,09,53,16.70
2012,06,29,09,54,16.70
2012,06,29,09,55,16.70
2012,06,29,09,56,16.80
2012,06,29,09,57,16.80
2012,06,29,09,58,16.90
2012,06,29,09,59,17.00
2012,06,29,10,00,17.00
2012,06,29,10,01,17.10
2012,06,29,10,02,17.10
2012,06,29,10,03,17.10
2012,06,29,10,04,17.10
2012,06,29,10,05,17.10
2012,06,29,10,06,17.20
2012,06,29,10,07,17.20
2012,06,29,10,08,17.20
2012,06,29,10,09,17.10
2012,06,29,10,10,17.00
2012,06,29,10,11,17.00
2012,06,29,10,12,17.00
2012,06,29,10,13,16.90
2012,06,29,10,14,16.90
2012,06,29,10,15,16.80
2012,06,29,10,16,16.80
2012,06,29,10,17,16.80
2012,06,29,10,18,16.90
2012,06,29,10,19,16.90
2012,06,29,10,20,16.90
2012,06,29,10,21,16.80
2012,06,29,10,22,16.90
2012,06,29,10,23,16.80
2012,06,29,10,24,16.80
2012,06,29,10,25,16.90
2012,06,29,10,26,16.90
2012,06,29,10,27,17.00
2012,06,29,10,28,17.00
2012,06,29,10,29,17.10
2012,06,29,10,30,17.10
2012,06,29,10,31,17.20
2012,06,29,10,32,17.20
2012,06,29,10,33,17.20
2012,06,29,10,34,17.20
2012,06,29,10,35,17.30
2012,06,29,10,36,17.30
2012,06,29,10,37,17.40
2012,06,29,10,38,17.50
2012,06,29,10,39,17.50
2012,06,29,10,40,17.50
2012,06,29,10,41,17.50
2012,06,29,10,42,17.50
2012,06,29,10,43,17.50
2012,06,29,10,44,17.60
2012,06,29,10,45,17.70
2012,06,29,10,46,17.70
2012,06,29,10,47,17.80
2012,06,29,10,48,17.80
2012,06,29,10,49,17.90
2012,06,29,10,50,18.00
2012,06,29,10,51,18.10
2012,06,29,10,52,18.10
2012,06,29,10,53,18.10
2012,06,29,10,54,18.20
2012,06,29,10,55,18.20
2012,06,29,10,56,18.30
2012,06,29,10,57,18.40
2012,06,29,10,58,18.40
2012,06,29,10,59,18.40
2012,06,29,11,00,18.40
2012,06,29,11,01,18.40
2012,06,29,11,02,18.40
2012,06,29,11,03,18.30
2012,06,29,11,04,18.30
2012,06,29,11,05,18.30
2012,06,29,11,06,18.40
2012,06,29,11,07,18.60
2012,06,29,11,08,18.70
2012,06,29,11,09,18.80
2012,06,29,11,10,18.90
2012,06,29,11,11,18.90
2012,06,29,11,12,19.00
2012,06,29,11,13,19.10
2012,06,29,11,14,19.10
2012,06,29,11,15,19.00
2012,06,29,11,16,19.00
2012,06,29,11,17,18.90
2012,06,29,11,18,18.80
2012,06,29,11,19,18.80
2012,06,29,11,20,18.80
2012,06,29,11,21,18.70
2012,06,29,11,22,18.80
2012,06,29,11,23,18.80
2012,06,29,11,24,18.90
2012,06,29,11,25,19.00
2012,06,29,11,26,19.10
2012,06,29,11,27,19.20
2012,06,29,11,28,19.20
2012,06,29,11,29,19.10
2012,06,29,11,30,19.10
2012,06,29,11,31,19.10
2012,06,29,11,32,19.10
2012,06,29,11,33,19.20
2012,06,29,11,34,19.20
2012,06,29,11,35,19.30
2012,06,29,11,36,19.30
2012,06,29,11,37,19.30
2012,06,29,11,38,19.40
2012,06,29,11,39,19.40
2012,06,29,11,40,19.50
2012,06,29,11,41,19.50
2012,06,29,11,42,19.60
2012,06,29,11,43,19.50
2012,06,29,11,44,19.40
2012,06,29,11,45,19.40
2012,06,29,11,46,19.30
2012,06,29,11,47,19.30
2012,06,29,11,48,19.30
2012,06,29,11,49,19.40
2012,06,29,11,50,19.40
2012,06,29,11,51,19.40
2012,06,29,11,52,19.50
2012,06,29,11,53,19.50
2012,06,29,11,54,19.60
2012,06,29,11,55,19.70
2012,06,29,11,56,19.80
2012,06,29,11,57,19.90
2012,06,29,11,58,19.90
2012,06,29,11,59,20.00
2012,06,29,12,00,20.00
2012,06,29,12,01,20.10
2012,06,29,12,02,20.10
2012,06,29,12,03,20.20
2012,06,29,12,04,20.30
2012,06,29,12,05,20.30
2012,06,29,12,06,20.20
2012,06,29,12,07,20.20
2012,06,29,12,08,20.10
2012,06,29,12,09,20.00
2012,06,29,12,10,19.90
2012,06,29,12,11,19.90
2012,06,29,12,12,19.80
2012,06,29,12,13,19.80
2012,06,29,12,14,19.70
2012,06,29,12,15,19.70
2012,06,29,12,16,19.70
2012,06,29,12,17,19.70
2012,06,29,12,18,19.70
2012,06,29,12,19,19.70
2012,06,29,12,20,19.80
2012,06,29,12,21,19.80
2012,06,29,12,22,19.80
2012,06,29,12,23,19.70
2012,06,29,12,24,19.70
2012,06,29,12,25,19.80
2012,06,29,12,26,19.90
2012,06,29,12,27,20.00
2012,06,29,12,28,20.10
2012,06,29,12,29,20.20
2012,06,29,12,30,20.20
2012,06,29,12,31,20.30
2012,06,29,12,32,20.30
2012,06,29,12,33,20.30
2012,06,29,12,34,20.30
2012,06,29,12,35,20.20
2012,06,29,12,36,20.20
2012,06,29,12,37,20.10
2012,06,29,12,38,20.10
2012,06,29,12,39,20.00
2012,06,29,12,40,19.90
2012,06,29,12,41,19.90
2012,06,29,12,42,19.90
2012,06,29,12,43,19.90
2012,06,29,12,44,19.90
2012,06,29,12,45,20.00
2012,06,29,12,46,19.90
2012,06,29,12,47,19.90
2012,06,29,12,48,19.90
2012,06,29,12,49,19.90
2012,06,29,12,50,19.90
2012,06,29,12,51,20.00
2012,06,29,12,52,19.90
2012,06,29,12,53,20.00
2012,06,29,12,54,20.00
2012,06,29,12,55,19.90
2012,06,29,12,56,19.90
2012,06,29,12,57,20.00
2012,06,29,12,58,20.10
2012,06,29,12,59,20.10
2012,06,29,13,00,20.10
2012,06,29,13,01,20.10
2012,06,29,13,02,20.00
2012,06,29,13,03,19.80
2012,06,29,13,04,19.80
2012,06,29,13,05,19.70
2012,06,29,13,06,19.70
2012,06,29,13,07,19.60
2012,06,29,13,08,19.70
2012,06,29,13,09,19.70
2012,06,29,13,10,19.70
2012,06,29,13,11,19.70
2012,06,29,13,12,19.70
2012,06,29,13,13,19.80
2012,06,29,13,14,19.80
2012,06,29,13,15,19.90
2012,06,29,13,16,19.90
2012,06,29,13,17,19.90
2012,06,29,13,18,19.80
2012,06,29,13,19,19.80
2012,06,29,13,20,19.80
2012,06,29,13,21,19.80
2012,06,29,13,22,19.90
2012,06,29,13,23,19.90
2012,06,29,13,24,20.00
2012,06,29,13,25,20.10
2012,06,29,13,26,20.10
2012,06,29,13,27,20.10
2012,06,29,13,28,20.20
2012,06,29,13,29,20.20
2012,06,29,13,30,20.30
2012,06,29,13,31,20.40
2012,06,29,13,32,20.50
2012,06,29,13,33,20.60
2012,06,29,13,34,20.60
2012,06,29,13,35,20.50
2012,06,29,13,36,20.50
2012,06,29,13,37,20.50
2012,06,29,13,38,20.60
2012,06,29,13,39,20.70
2012,06,29,13,40,20.80
2012,06,29,13,41,20.80
2012,06,29,13,42,20.90
2012,06,29,13,43,20.90
2012,06,29,13,44,21.00
2012,06,29,13,45,20.90
2012,06,29,13,46,20.90
2012,06,29,13,47,20.80
2012,06,29,13,48,20.70
2012,06,29,13,49,20.70
2012,06,29,13,50,20.70
2012,06,29,13,51,20.70
2012,06,29,13,52,20.70
2012,06,29,13,53,20.60
2012,06,29,13,54,20.60
2012,06,29,13,55,20.60
2012,06,29,13,56,20.60
2012,06,29,13,57,20.70
2012,06,29,13,58,20.70
2012,06,29,13,59,20.60
2012,06,29,14,00,20.50
2012,06,29,14,01,20.50
2012,06,29,14,02,20.50
2012,06,29,14,03,20.40
2012,06,29,14,04,20.40
2012,06,29,14,05,20.50
2012,06,29,14,06,20.60
2012,06,29,14,07,20.60
2012,06,29,14,08,20.70
2012,06,29,14,09,20.60
2012,06,29,14,10,20.60
2012,06,29,14,11,20.60
2012,06,29,14,12,20.50
2012,06,29,14,13,20.50
2012,06,29,14,14,20.40
2012,06,29,14,15,20.50
2012,06,29,14,16,20.50
2012,06,29,14,17,20.50
2012,06,29,14,18,20.60
2012,06,29,14,19,20.60
2012,06,29,14,20,20.60
2012,06,29,14,21,20.60
2012,06,29,14,22,20.60
2012,06,29,14,23,20.60
2012,06,29,14,24,20.60
2012,06,29,14,25,20.70
2012,06,29,14,26,20.80
2012,06,29,14,27,20.90
2012,06,29,14,28,21.00
2012,06,29,14,29,21.00
2012,06,29,14,30,21.10
2012,06,29,14,31,21.20
2012,06,29,14,32,21.10
2012,06,29,14,33,21.00
2012,06,29,14,34,20.90
2012,06,29,14,35,20.90
2012,06,29,14,36,20.90
2012,06,29,14,37,21.00
2012,06,29,14,38,21.00
2012,06,29,14,39,21.00
2012,06,29,14,40,20.90
2012,06,29,14,41,20.90
2012,06,29,14,42,20.90
2012,06,29,14,43,20.80
2012,06,29,14,44,20.80
2012,06,29,14,45,20.70
2012,06,29,14,46,20.80
2012,06,29,14,47,20.80
2012,06,29,14,48,20.80
2012,06,29,14,49,20.90
2012,06,29,14,50,21.00
2012,06,29,14,51,21.10
2012,06,29,14,52,21.00
2012,06,29,14,53,21.00
2012,06,29,14,54,21.00
2012,06,29,14,55,21.00
2012,06,29,14,56,21.00
2012,06,29,14,57,20.90
2012,06,29,14,58,20.90
2012,06,29,14,59,20.90
2012,06,29,15,00,20.90
2012,06,29,15,01,20.90
2012,06,29,15,02,20.90
2012,06,29,15,03,20.90
2012,06,29,15,04,20.90
2012,06,29,15,05,20.80
2012,06,29,15,06,20.70
2012,06,29,15,07,20.60
2012,06,29,15,08,20.60
2012,06,29,15,09,20.50
2012,06,29,15,10,20.40
2012,06,29,15,11,20.30
2012,06,29,15,12,20.30
2012,06,29,15,13,20.20
2012,06,29,15,14,20.20
2012,06,29,15,15,20.20
2012,06,29,15,16,20.20
2012,06,29,15,17,20.20
2012,06,29,15,18,20.30
2012,06,29,15,19,20.30
2012,06,29,15,20,20.30
2012,06,29,15,21,20.30
2012,06,29,15,22,20.30
2012,06,29,15,23,20.30
2012,06,29,15,24,20.30
2012,06,29,15,25,20.30
2012,06,29,15,26,20.30
2012,06,29,15,27,20.30
2012,06,29,15,28,20.30
2012,06,29,15,29,20.30
2012,06,29,15,30,20.30
2012,06,29,15,31,20.20
2012,06,29,15,32,20.20
2012,06,29,15,33,20.20
2012,06,29,15,34,20.10
2012,06,29,15,35,20.10
2012,06,29,15,36,20.10
2012,06,29,15,37,20.20
2012,06,29,15,38,20.20
2012,06,29,15,39,20.20
2012,06,29,15,40,20.30
2012,06,29,15,41,20.30
2012,06,29,15,42,20.30
2012,06,29,15,43,20.30
2012,06,29,15,44,20.30
2012,06,29,15,45,20.40
2012,06,29,15,46,20.40
2012,06,29,15,47,20.40
2012,06,29,15,48,20.40
2012,06,29,15,49,20.50
2012,06,29,15,50,20.50
2012,06,29,15,51,20.60
2012,06,29,15,52,20.60
2012,06,29,15,53,20.60
2012,06,29,15,54,20.60
2012,06,29,15,55,20.60
2012,06,29,15,56,20.60
2012,06,29,15,57,20.60
2012,06,29,15,58,20.50
2012,06,29,15,59,20.50
2012,06,29,16,00,20.50
2012,06,29,16,01,20.50
2012,06,29,16,02,20.50
2012,06,29,16,03,20.50
2012,06,29,16,04,20.50
2012,06,29,16,05,20.60
2012,06,29,16,06,20.60
2012,06,29,16,07,20.50
2012,06,29,16,08,20.50
2012,06,29,16,09,20.40
2012,06,29,16,10,20.40
2012,06,29,16,11,20.30
2012,06,29,16,12,20.30
2012,06,29,16,13,20.20
2012,06,29,16,14,20.20
2012,06,29,16,15,20.30
2012,06,29,16,16,20.30
2012,06,29,16,17,20.30
2012,06,29,16,18,20.30
2012,06,29,16,19,20.30
2012,06,29,16,20,20.30
2012,06,29,16,21,20.30
2012,06,29,16,22,20.20
2012,06,29,16,23,20.20
2012,06,29,16,24,20.20
2012,06,29,16,25,20.20
2012,06,29,16,26,20.10
2012,06,29,16,27,20.10
2012,06,29,16,28,20.10
2012,06,29,16,29,20.10
2012,06,29,16,30,20.10
2012,06,29,16,31,20.10
2012,06,29,16,32,20.10
2012,06,29,16,33,20.10
2012,06,29,16,34,20.10
2012,06,29,16,35,20.10
2012,06,29,16,36,20.20
2012,06,29,16,37,20.30
2012,06,29,16,38,20.30
2012,06,29,16,39,20.30
2012,06,29,16,40,20.30
2012,06,29,16,41,20.30
2012,06,29,16,42,20.30
2012,06,29,16,43,20.30
2012,06,29,16,44,20.30
2012,06,29,16,45,20.30
2012,06,29,16,46,20.30
2012,06,29,16,47,20.30
2012,06,29,16,48,20.20
2012,06,29,16,49,20.20
2012,06,29,16,50,20.10
2012,06,29,16,51,20.10
2012,06,29,16,52,20.10
2012,06,29,16,53,20.00
2012,06,29,16,54,19.90
2012,06,29,16,55,19.90
2012,06,29,16,56,19.90
2012,06,29,16,57,19.90
2012,06,29,16,58,19.90
2012,06,29,16,59,19.90
2012,06,29,17,00,19.80
2012,06,29,17,01,19.80
2012,06,29,17,02,19.80
2012,06,29,17,03,19.80
2012,06,29,17,04,19.90
2012,06,29,17,05,19.90
2012,06,29,17,06,20.00
2012,06,29,17,07,20.10
2012,06,29,17,08,20.10
2012,06,29,17,09,20.10
2012,06,29,17,10,20.10
2012,06,29,17,11,20.10
2012,06,29,17,12,20.10
2012,06,29,17,13,20.10
2012,06,29,17,14,20.10
2012,06,29,17,15,20.10
2012,06,29,17,16,20.10
2012,06,29,17,17,20.20
2012,06,29,17,18,20.20
2012,06,29,17,19,20.30